Regional Weather Roundup
Issued by NWS

Home | Current Version | Previous Version | Text Only | Print | Product List | Glossary Off
Versions: 1 2 3 4 5 6 7 8 9 10 11 12 13 14 15 16 17 18 19 20 21 22 23 24 25 26 27 28 29 30 31 32 33 34 35 36 37 38 39 40 41 42 43 44 45 46 47 48 49 50

000
ASUS43 KTOP 231459
RWRKS

WEATHER ROUNDUP FOR KANSAS
NATIONAL WEATHER SERVICE GOODLAND KS
1000 AM CDT WED JUL 23 2014

NOTE:  "FAIR" INDICATES FEW OR NO CLOUDS BELOW 12,000 FEET WITH NO
SIGNIFICANT WEATHER AND/OR OBSTRUCTIONS TO VISIBILITY.

KSZ001>006-013>018-027>032-041>047-231600-
NORTHWEST KANSAS

CITY           SKY/WX    TMP DP  RH WIND       PRES   REMARKS
GOODLAND       CLOUDY    72  67  84 SE10      30.31S
HAYS           MOSUNNY   75  63  64 E15       30.24R
HILL CITY      PTSUNNY   75  66  73 E12       30.27R
RUSSELL        MOSUNNY   75  66  73 E14       30.21S
$$

KSZ061>065-074>080-084>089-231600-
SOUTHWEST KANSAS

CITY           SKY/WX    TMP DP  RH WIND       PRES   REMARKS
DODGE CITY     SUNNY     80  69  69 E9        30.23S
ELKHART          N/A     81  64  56 S6          N/A
GARDEN CITY    SUNNY     82  66  58 E7        30.24S
GREAT BEND     MOSUNNY   75  66  73 E13G20    30.21R
LIBERAL        SUNNY     84  66  54 S7        30.26S
$$

KSZ066>073-081>083-090>101-231600-
SOUTHEAST KANSAS

CITY           SKY/WX    TMP DP  RH WIND       PRES   REMARKS
CHANUTE        MOSUNNY   84  73  69 E8        30.11F
COFFEYVILLE    MOSUNNY   86  77  74 NE8       30.09F HX  97
HUTCHINSON     CLOUDY    76  67  73 E16G24    30.18F
MEDICINE LODGE   N/A     83  75  77 N16       30.16S
NEWTON         CLOUDY    73  63  68 NE12G22   30.23F
PARSONS        PTSUNNY   85  76  74 VRB5      30.11F
WICHITA INTL   CLOUDY    81  74  79 N18       30.17R
WICHITA JABRA  CLOUDY    78  71  79 NE20G28   30.18R
WINFIELD       PTSUNNY   88  77  69 N5        30.14R HX 100
$$

KSZ007>012-019>026-033>040-048>060-102>105-231600-
NORTHEAST KANSAS

CITY           SKY/WX    TMP DP  RH WIND       PRES   REMARKS
CONCORDIA      CLOUDY    71  66  84 E9        30.20S
EMPORIA        LGT RAIN  74  66  76 NW18G31   30.21R
LAWRENCE       SUNNY     79  68  69 NE7       30.15R
MANHATTAN      CLOUDY    75  63  66 E5        30.20F
OLATHE IND     SUNNY     82  66  58 NE12      30.14F
OLATHE EXE     SUNNY     80  67  64 NE9       30.14S
SALINA         LGT RAIN  72  66  81 E20G26    30.11F
TOPEKA BILLARD MOSUNNY   82  67  60 N8        30.17R
TOPEKA FORBES  MOSUNNY   82  66  58 NE9       30.17R
$$


USA.gov is the U.S. government's official web portal to all federal, state and local government web resources and services.